Theta_e
319 317 321 321 321 322 323 328 328 329 330 325 322 321 319 322 321 320 323 322 320 321 321 319 320 318 319 319 318 319 320 325 326 326 324 326 325 324 326 322 326 324 323 329 332 337 337 339 341 341 341 341 342 342 343 342 343 342 342 342 341 341 341 341 340 340 339 336 336 338 338 338 337 335 335 336 336 334 334 335 335 335 337 338 338 338 338 337 334 331 328 326 325 326 327 326 325
322 320 322 321 322 321 324 330 329 331 332 319 318 322 318 320 321 322 326 325 321 318 320 320 320 320 320 320 317 319 318 321 323 321 323 323 323 324 324 323 326 323 323 327 331 336 337 338 340 342 341 342 341 342 343 342 343 342 342 342 341 340 341 341 340 340 339 337 335 336 337 337 337 335 335 335 336 335 333 333 334 335 336 338 338 338 338 337 336 335 333 332 331 329 328 326 325
321 322 321 321 322 321 329 330 326 333 332 318 320 329 319 318 325 327 329 329 323 318 322 320 319 321 319 321 318 319 320 320 318 323 328 322 323 323 321 324 325 325 324 326 331 335 336 337 340 342 341 342 341 341 343 342 342 342 342 341 341 340 340 340 340 340 339 338 336 336 336 336 336 335 335 335 335 335 333 332 333 335 336 337 338 338 338 337 336 335 334 333 332 332 331 329 327
321 323 320 320 322 325 342 337 334 339 329 320 319 327 325 321 327 332 329 326 324 320 322 320 318 318 317 322 319 316 320 320 315 322 330 322 322 322 321 324 324 326 325 326 330 332 336 337 339 341 341 341 341 342 342 342 341 341 342 341 341 340 340 340 339 340 338 337 335 335 336 335 335 334 335 334 334 334 332 331 332 334 336 337 337 337 337 337 336 334 334 331 329 330 330 332 331
321 323 317 318 323 326 339 331 332 333 321 323 317 318 331 331 327 328 328 323 323 322 321 321 320 317 316 321 319 318 320 320 315 316 323 322 321 321 322 323 323 326 326 328 330 331 334 336 338 340 340 340 341 342 342 342 341 342 342 341 341 340 340 339 339 339 338 337 335 333 334 334 334 334 335 335 335 334 333 332 332 333 335 337 337 337 337 336 335 334 333 331 330 326 323 327 331
320 321 318 316 317 318 327 323 321 323 323 328 318 316 328 330 325 323 327 324 321 321 319 320 319 317 317 319 317 318 320 318 316 316 320 322 323 322 322 322 322 325 327 329 332 332 333 335 337 339 340 340 341 341 342 343 341 342 342 341 340 340 340 339 339 338 337 337 337 335 334 334 334 335 336 336 336 335 334 333 332 333 335 337 337 337 336 335 333 332 330 329 327 320 318 322 327
319 320 323 322 319 322 332 325 321 323 321 320 315 318 321 321 323 320 322 322 320 318 318 319 318 318 318 317 315 315 315 317 318 318 320 322 324 323 322 322 322 325 328 330 332 334 333 335 336 337 340 340 340 341 342 342 341 341 341 341 340 339 339 339 338 337 337 337 338 337 336 334 333 335 337 337 336 334 334 333 332 333 335 336 336 336 335 334 332 331 329 328 324 317 314 314 317
318 320 326 332 334 336 338 326 326 328 318 315 317 320 320 319 320 320 321 319 318 318 319 321 318 319 316 315 319 317 313 319 321 319 320 322 325 323 321 322 323 325 329 331 333 336 334 334 336 337 338 339 340 341 342 341 341 341 340 341 340 339 338 339 337 336 337 336 337 337 337 334 332 336 337 337 337 334 334 333 332 333 335 336 335 335 334 333 331 330 330 328 326 322 314 308 306
317 319 325 332 335 336 334 323 322 324 321 320 319 322 323 319 317 319 321 319 318 320 320 320 317 317 316 317 322 319 315 320 321 322 322 323 324 322 321 322 324 325 328 331 333 335 335 335 335 336 337 339 340 340 341 340 340 340 340 340 340 339 338 338 336 337 336 336 336 335 335 333 332 337 336 337 337 335 333 332 333 334 335 336 335 334 333 332 331 331 330 328 327 327 324 313 301
318 320 325 332 333 330 325 320 321 322 323 322 320 323 321 317 317 318 320 318 316 317 318 316 316 319 318 318 322 318 316 319 320 322 322 322 322 321 321 323 325 326 327 330 333 335 335 335 334 336 337 338 340 339 340 340 340 339 340 339 339 338 337 338 336 336 335 335 336 335 334 332 333 336 336 337 337 336 333 332 334 334 334 334 334 334 333 332 331 330 329 329 327 327 327 317 301
326 329 331 336 331 324 318 320 329 329 326 324 321 323 320 316 318 318 318 316 315 316 315 315 318 321 319 319 324 318 315 318 319 320 321 322 321 320 322 322 324 327 328 330 332 334 334 335 334 335 336 338 339 339 339 339 339 339 339 339 339 338 337 338 335 335 335 335 336 335 334 332 334 335 337 337 336 336 334 333 334 333 332 332 333 332 332 331 330 330 329 328 327 328 324 309 299
326 333 342 343 327 321 321 323 331 336 333 326 318 318 316 315 318 317 317 316 316 318 317 316 316 317 319 321 320 314 313 319 319 318 322 322 320 320 321 322 324 326 329 331 332 333 334 335 335 335 336 338 338 339 339 339 339 339 340 339 339 337 336 337 335 335 335 335 335 333 333 333 334 335 337 337 337 337 335 334 334 332 331 332 332 331 331 330 329 329 328 328 327 328 319 301 299
334 334 338 331 321 323 324 322 325 331 331 321 316 316 313 315 317 316 317 318 316 318 316 316 316 315 318 319 318 319 316 318 320 318 320 321 320 320 320 321 323 325 328 331 333 333 334 335 335 335 335 336 338 339 339 339 339 339 340 339 339 337 336 337 335 334 334 334 334 333 333 333 334 335 336 337 337 337 335 334 333 332 331 332 331 328 329 329 328 327 327 327 326 327 316 298 299
333 336 334 320 318 327 324 319 322 324 319 318 320 318 315 315 317 316 316 317 317 317 313 312 314 315 316 315 323 329 318 315 320 318 318 319 320 320 319 321 322 324 327 329 332 333 333 334 335 336 335 336 337 338 339 339 339 338 339 339 338 337 336 336 334 334 334 333 334 334 334 334 335 335 336 337 337 337 336 335 333 332 331 331 330 327 327 328 328 327 326 326 324 325 316 299 298
325 337 338 324 321 324 320 319 325 324 317 318 318 315 317 315 314 318 316 315 317 314 311 310 311 314 315 313 321 324 314 315 319 318 319 319 320 320 320 321 323 325 327 329 331 333 334 334 335 335 335 335 336 338 338 338 339 339 339 338 338 337 336 336 333 333 334 334 334 334 333 334 335 336 336 337 337 337 336 335 334 332 332 331 330 328 326 325 326 326 326 325 323 323 316 300 298
324 335 333 321 318 318 317 319 323 322 318 321 318 314 317 315 312 317 314 313 315 313 312 314 312 313 315 314 315 314 312 314 316 319 320 320 321 322 323 324 325 327 329 329 330 333 335 335 335 336 335 335 335 336 338 338 339 339 339 338 338 337 337 336 334 333 334 334 333 333 333 334 335 336 336 336 336 336 336 335 333 333 332 331 330 329 327 325 324 325 324 324 323 322 314 302 298
325 334 331 319 315 317 319 322 322 318 320 326 323 317 316 317 315 314 310 312 315 315 316 317 312 311 314 314 312 310 311 313 315 319 320 322 324 324 325 326 326 327 328 328 328 330 333 336 337 336 336 335 335 335 337 338 338 339 339 338 338 338 337 336 336 335 334 334 333 332 333 334 335 335 336 335 336 335 335 335 334 333 333 332 331 329 327 326 324 323 323 322 322 320 315 305 299
334 335 325 316 316 320 323 327 325 318 318 321 320 317 316 317 319 315 312 316 319 316 316 316 313 311 312 311 310 309 311 313 317 321 322 322 322 322 323 324 325 327 328 330 330 329 330 334 336 337 337 336 335 335 335 336 337 338 338 338 338 337 337 337 336 336 335 334 333 332 333 333 334 334 334 334 335 334 334 335 335 334 333 332 331 330 328 326 325 323 322 322 320 318 316 309 300
339 332 317 323 329 324 323 327 325 319 317 319 319 317 315 315 315 313 314 320 320 318 316 315 314 315 313 309 308 308 308 310 314 316 316 314 313 314 314 316 319 320 323 326 329 330 331 331 333 335 336 336 336 336 335 335 336 336 337 338 338 337 337 336 336 336 336 335 334 333 333 333 333 333 333 333 333 334 335 335 335 334 334 332 331 330 328 326 325 323 322 321 320 317 316 312 301
330 326 320 333 337 326 324 325 322 320 316 317 320 315 315 316 315 313 314 318 318 317 317 315 314 314 313 307 304 306 307 307 308 308 307 306 306 306 306 307 309 311 314 317 321 325 328 330 332 333 334 335 336 336 336 336 336 335 335 337 338 338 337 337 336 336 337 336 335 333 333 333 333 333 333 333 334 334 335 334 335 334 333 332 331 329 328 326 325 324 323 321 320 317 315 309 300
319 322 327 331 325 321 324 326 325 322 315 315 319 316 316 316 314 315 314 317 318 316 314 313 312 311 312 307 302 304 305 304 304 304 303 303 304 304 304 305 306 308 309 311 314 317 320 323 328 332 333 333 335 336 337 336 335 335 335 335 336 336 338 338 337 336 336 336 335 334 335 335 334 334 332 332 335 335 335 336 335 334 333 332 330 329 328 326 325 324 323 322 320 318 315 307 298
318 324 328 327 320 318 321 325 325 321 315 315 318 316 315 313 314 316 315 316 317 314 311 311 309 308 310 308 304 303 302 302 303 302 302 302 303 303 304 306 308 309 310 311 311 313 314 317 322 328 332 333 333 334 336 337 336 335 335 336 336 336 337 338 338 337 336 335 335 334 335 336 335 335 332 332 335 336 335 335 336 335 333 332 329 328 328 326 326 325 324 323 321 320 317 310 300
319 324 324 324 321 319 321 322 320 317 315 316 317 314 313 314 314 316 316 316 315 310 308 309 306 305 305 304 303 303 302 301 301 301 302 301 302 302 303 305 307 308 311 313 313 313 313 314 318 323 328 331 332 333 335 336 336 335 334 335 336 336 336 336 336 336 334 334 334 334 334 335 335 334 333 331 333 334 333 332 335 335 333 331 329 328 328 327 326 325 324 323 322 321 320 315 305
319 323 324 322 319 320 322 320 318 315 315 317 315 312 312 315 315 314 313 314 311 305 304 304 303 302 302 302 301 301 301 300 300 301 301 301 301 301 302 304 306 309 312 315 316 315 313 314 315 319 323 327 331 333 334 335 335 334 334 334 334 335 336 336 334 334 334 332 333 335 335 335 335 335 333 330 329 331 332 332 334 334 333 332 330 329 329 327 326 326 324 323 322 322 320 319 312
320 324 324 319 317 322 321 317 317 315 314 314 312 314 315 313 313 312 312 311 307 303 302 302 301 301 301 301 300 299 299 299 299 300 300 300 301 302 304 305 307 310 312 315 317 318 316 314 314 317 319 322 328 331 333 334 334 334 333 333 333 333 334 334 334 334 335 333 331 332 333 333 332 332 333 332 329 328 331 333 332 332 332 332 331 330 329 327 327 326 325 323 323 322 321 320 317
321 323 322 317 316 318 316 315 316 314 313 313 312 316 315 310 311 310 310 307 303 305 305 303 302 302 301 300 299 299 298 298 299 299 299 299 301 302 303 305 307 309 310 313 317 320 320 318 316 316 318 320 324 329 332 333 333 333 332 332 333 332 332 332 331 331 333 333 331 331 333 333 331 331 332 332 331 330 332 332 333 332 332 332 331 330 329 328 328 327 326 324 323 322 321 320 319
318 320 318 317 316 315 315 315 315 312 312 314 312 315 314 310 311 311 309 304 304 311 308 302 302 301 300 300 298 298 298 298 298 298 298 298 299 300 301 303 306 307 310 314 318 320 322 322 321 320 320 321 323 327 330 331 332 331 331 331 331 331 331 331 330 329 330 331 332 332 333 333 332 332 332 331 330 330 330 329 329 331 331 331 330 329 329 328 328 327 326 325 324 322 321 320 319
314 314 315 318 317 315 315 315 313 311 312 313 311 313 313 310 312 312 307 302 305 314 309 302 303 301 299 300 298 298 298 297 298 297 297 297 298 298 299 301 303 307 309 311 316 320 323 324 324 324 324 324 325 327 329 330 330 330 330 330 330 330 330 330 330 330 330 330 330 331 331 330 329 331 331 331 330 330 330 328 328 329 329 329 329 329 329 329 328 327 326 325 324 322 321 320 319
313 313 314 319 319 316 314 313 312 312 313 313 312 314 316 314 312 309 304 303 308 311 308 304 302 300 300 299 298 298 297 297 297 296 297 297 297 298 298 300 301 305 308 310 315 320 323 324 325 326 326 326 326 327 328 329 329 330 330 330 330 330 330 330 330 331 331 331 331 331 331 330 329 329 329 330 330 330 330 330 329 329 328 328 328 329 328 328 328 327 326 325 324 323 322 320 320
313 312 313 316 318 320 314 310 312 313 313 313 313 317 326 324 312 307 305 307 314 313 306 304 302 300 300 299 298 298 297 296 296 296 296 296 297 297 298 300 301 304 307 311 315 319 322 323 325 326 326 327 326 327 328 328 329 330 330 330 330 330 331 331 330 331 331 331 332 332 331 331 330 330 329 330 330 329 329 328 329 329 328 329 329 329 328 328 327 326 326 325 324 323 322 321 319
315 310 316 319 315 324 321 312 314 314 312 311 312 317 327 327 312 306 305 306 316 313 304 303 301 300 299 298 298 297 296 296 296 296 296 296 297 297 298 300 301 304 307 310 312 315 319 322 324 325 326 327 327 328 328 328 329 329 329 329 328 328 328 328 327 328 328 328 329 328 329 330 329 329 330 329 329 329 328 328 328 329 329 329 329 329 328 327 326 326 326 325 324 323 322 321 319
324 313 323 326 316 326 327 314 314 315 311 311 313 318 323 321 310 306 304 304 313 310 303 302 301 300 299 298 297 297 296 295 295 295 296 296 296 297 298 299 301 303 306 308 310 314 317 320 322 324 324 325 326 327 327 327 327 326 326 325 325 325 324 324 323 323 324 324 325 324 324 326 326 326 327 327 327 327 326 326 327 327 327 327 328 328 327 327 326 326 325 324 324 323 322 320 319
329 317 322 329 320 322 322 315 315 315 312 311 313 317 321 317 307 304 303 306 315 309 303 302 300 300 298 297 297 296 296 295 295 295 295 296 296 297 297 298 300 302 304 308 311 314 315 317 320 321 322 323 324 324 324 324 323 323 322 321 321 320 319 318 318 320 320 319 320 320 321 322 323 323 323 323 324 323 323 323 324 324 325 324 324 324 325 325 325 324 324 324 323 322 321 320 318
327 318 317 325 321 319 320 319 316 314 314 313 313 314 317 316 309 306 303 307 315 309 302 301 299 299 298 297 297 296 295 295 294 294 294 295 296 296 297 298 300 302 304 307 309 311 313 314 316 318 319 321 321 321 321 321 320 320 319 318 318 317 315 314 315 317 316 316 316 316 317 319 320 320 321 321 320 320 319 320 320 321 321 321 320 320 320 320 320 320 320 320 321 321 320 319 318
328 323 319 322 319 317 320 319 316 316 317 316 316 315 317 317 313 309 303 305 311 306 300 300 299 298 298 297 296 296 295 294 294 293 293 294 295 296 296 298 299 302 304 306 308 310 311 313 314 316 316 317 318 318 318 318 319 318 316 316 316 314 313 313 312 312 311 312 312 312 312 313 314 315 316 316 317 317 317 316 317 317 317 317 318 317 317 317 316 316 316 316 317 317 317 317 317
326 328 328 327 322 320 320 319 317 314 315 317 317 317 320 318 316 310 304 303 305 303 300 300 299 298 298 297 296 296 295 294 293 293 293 293 294 295 296 297 299 301 303 305 307 309 309 310 312 314 314 315 316 317 317 317 317 315 313 313 310 307 308 309 307 306 306 307 308 308 309 309 309 310 311 312 313 313 313 313 314 315 315 315 314 314 314 314 314 314 314 314 315 314 315 315 314
320 323 326 325 323 321 318 318 318 313 314 320 317 317 320 317 315 309 303 303 303 302 301 300 299 298 297 297 296 296 295 294 293 293 293 293 293 294 295 296 299 301 301 303 305 306 306 308 310 310 310 313 314 314 314 313 312 311 310 307 304 303 304 305 303 303 303 304 305 306 306 306 307 308 308 309 310 310 311 311 312 312 312 312 311 311 311 311 311 311 311 312 312 312 312 312 311
315 317 319 320 320 318 315 314 315 312 313 319 315 315 319 316 312 306 304 306 304 301 301 299 298 298 297 297 296 296 296 294 292 292 292 292 292 293 293 294 296 297 298 299 301 302 304 306 306 306 308 310 309 309 309 309 308 307 306 303 302 302 302 301 301 300 301 301 302 303 303 303 304 305 305 305 306 306 306 306 306 307 308 309 309 309 309 309 309 309 308 308 308 309 309 309 308
314 316 315 317 319 318 319 315 313 312 313 320 318 316 318 316 307 303 303 304 301 299 300 299 298 298 298 297 296 296 296 295 293 292 291 291 291 291 292 292 293 294 294 295 297 300 303 303 304 304 305 306 305 305 305 304 304 304 303 302 301 301 299 299 299 299 300 300 300 300 300 300 301 301 301 302 303 302 302 302 302 303 304 304 305 306 306 306 306 306 306 305 305 305 306 306 306
315 317 316 319 318 318 325 320 315 314 312 317 318 315 318 316 307 303 301 300 299 298 299 298 298 298 297 296 296 296 296 295 294 292 291 290 290 291 291 291 292 293 293 293 294 297 300 301 302 302 303 303 303 303 303 302 302 302 301 301 300 300 299 299 299 299 299 298 298 298 298 298 299 299 299 299 300 300 300 300 300 301 301 301 302 302 302 302 302 303 303 302 301 301 302 302 303
318 319 317 319 319 319 324 320 317 318 316 314 314 317 325 321 314 309 302 300 300 299 299 298 298 297 297 296 296 295 295 294 294 293 291 290 290 290 290 290 291 292 291 291 291 293 297 299 301 301 301 301 301 301 302 302 302 301 301 301 300 300 298 298 297 295 295 295 294 294 294 295 296 296 297 297 298 298 298 299 299 299 299 299 299 299 299 299 300 300 301 301 300 299 299 299 300
322 324 319 319 320 320 320 317 316 321 323 316 312 322 334 328 320 312 304 303 303 301 300 300 298 298 298 298 297 296 295 294 292 291 290 289 289 289 290 290 290 291 291 291 291 292 295 298 299 300 300 300 300 300 300 301 301 300 300 299 296 294 292 290 289 288 289 289 289 289 290 290 291 292 292 293 294 295 296 296 297 297 298 298 298 298 298 298 298 298 298 299 299 298 298 299 298
323 323 320 317 316 317 318 317 318 324 325 315 310 318 330 331 326 314 305 306 304 301 301 300 299 299 298 298 298 297 296 294 292 291 289 289 289 289 289 289 289 290 290 290 291 292 294 296 297 298 298 298 298 298 298 299 298 297 296 293 290 289 287 286 286 286 286 287 287 287 287 287 287 288 288 288 289 290 291 292 293 294 295 295 296 296 296 296 297 297 297 297 297 297 298 298 298
326 321 319 320 318 319 320 318 319 323 322 318 317 317 319 326 323 310 305 308 305 301 301 300 299 299 298 298 298 297 296 295 294 292 290 288 289 288 288 289 289 289 289 290 291 292 293 294 295 295 295 295 295 295 295 295 295 293 292 289 288 287 286 286 286 286 286 287 287 286 286 286 286 286 286 286 286 286 287 287 288 289 289 290 290 291 291 292 294 295 296 296 296 296 296 296 296
324 316 317 320 320 322 323 321 321 318 316 322 326 317 316 326 322 308 304 309 308 305 303 301 300 299 298 298 297 296 295 294 292 291 290 289 288 288 288 288 288 288 289 290 290 291 292 292 293 293 293 292 292 292 292 292 291 290 289 288 287 286 286 286 286 286 287 287 287 286 286 286 286 286 286 286 286 286 286 286 286 286 286 286 286 287 287 287 288 289 291 292 293 294 294 295 295
316 310 315 317 317 320 322 322 322 317 316 325 329 319 318 328 327 314 308 312 313 308 304 301 301 300 299 298 297 296 295 293 291 290 289 289 288 288 288 288 288 288 288 289 290 291 291 291 292 292 291 290 290 290 290 290 289 289 288 287 287 286 287 287 287 287 287 287 287 287 287 287 287 287 287 287 287 287 287 287 286 286 286 286 286 286 286 286 286 286 286 287 288 290 291 292 293
310 314 321 319 319 320 322 323 320 317 322 326 323 319 317 322 328 321 314 315 314 309 305 302 300 300 300 299 298 296 295 294 292 290 289 289 288 288 288 288 287 287 288 289 289 290 290 290 291 290 289 288 289 288 288 288 287 288 287 287 287 287 287 287 287 287 287 287 287 287 287 287 287 287 287 287 287 287 287 287 287 287 287 287 287 287 287 286 286 286 286 286 286 286 286 287 288
313 322 324 321 322 320 320 324 320 320 328 325 317 315 314 318 327 324 316 312 309 308 306 302 300 300 299 298 298 297 296 295 294 291 289 288 288 288 287 287 287 287 287 288 288 289 289 289 290 289 287 287 287 287 287 287 287 287 287 287 287 287 287 287 287 287 287 287 287 287 287 287 287 287 287 287 287 287 287 287 287 287 286 286 286 286 286 286 286 287 286 286 286 286 286 286 286
316 323 322 323 325 321 322 325 321 322 324 316 313 315 314 317 322 320 317 312 306 305 304 301 299 299 298 298 298 297 297 295 295 293 290 288 288 287 287 287 287 287 287 287 288 288 288 288 288 288 286 286 287 287 287 287 287 287 287 287 287 287 287 287 287 287 286 287 287 287 286 286 286 286 286 286 286 286 286 286 286 286 286 285 285 285 285 286 286 286 286 286 286 286 286 286 286
315 320 323 325 325 325 328 325 319 320 319 311 310 314 316 317 317 316 315 309 302 301 302 301 299 298 297 297 297 297 297 295 296 294 290 288 288 287 287 287 287 287 287 287 287 288 287 287 287 287 286 286 287 287 287 287 287 287 287 287 287 287 287 287 287 286 286 286 286 286 285 285 285 285 284 284 284 285 285 285 285 285 285 285 285 285 285 285 285 285 285 285 284 285 285 285 285
314 318 320 322 327 329 328 325 324 325 321 313 309 313 322 323 314 308 306 302 298 300 300 299 299 298 297 297 297 297 296 295 295 294 290 288 288 287 287 287 287 287 287 287 287 287 287 287 286 286 286 286 287 287 287 287 287 287 287 287 287 287 287 287 286 286 286 286 285 285 285 284 284 284 283 283 284 284 284 284 284 284 284 284 284 284 284 284 284 284 284 284 284 284 284 284 284
314 314 316 320 324 325 321 319 321 321 320 317 314 317 323 318 308 300 300 299 298 299 298 298 299 298 297 297 297 296 296 295 295 294 291 288 288 287 287 287 287 287 287 287 287 287 287 287 286 286 286 286 287 287 287 287 287 287 287 287 287 287 287 287 286 286 286 286 285 285 284 284 284 283 283 283 283 283 283 283 283 283 283 283 283 283 283 283 283 283 283 283 283 283 283 283 283
314 312 319 319 315 321 322 315 312 313 318 320 317 319 320 313 309 303 300 301 300 298 298 298 298 297 297 297 296 295 295 294 294 293 290 288 288 287 287 287 287 287 287 287 287 287 287 286 286 286 286 286 286 287 287 287 287 287 287 287 287 287 287 287 286 286 286 286 286 285 285 284 284 283 283 283 283 283 283 282 282 282 281 281 281 281 281 282 282 282 282 282 282 282 282 283 283
317 317 321 316 311 318 322 319 318 317 320 321 317 319 320 318 316 308 302 305 304 299 298 298 297 297 297 296 296 295 294 294 293 291 289 288 288 288 287 288 287 287 287 287 287 287 287 286 286 286 286 286 286 287 287 287 287 287 287 287 287 287 287 287 287 286 286 286 286 286 285 285 284 284 283 283 283 283 283 283 282 282 282 281 281 281 281 280 280 281 281 281 281 281 282 282 282
316 317 315 314 317 321 319 319 323 322 322 325 320 316 316 317 319 314 310 315 312 301 298 298 297 297 296 296 295 295 294 293 293 292 289 288 288 288 288 288 287 287 287 287 287 287 287 286 286 286 286 286 286 287 287 287 287 287 287 287 287 287 287 287 287 287 287 287 286 286 286 285 284 284 283 283 283 283 283 283 283 282 282 282 282 282 282 281 281 281 280 280 280 280 280 280 281
310 311 310 313 318 321 320 318 321 322 322 324 322 318 317 317 318 318 318 318 312 302 298 298 297 297 296 295 295 294 294 293 293 292 290 288 288 289 288 288 287 287 286 286 286 286 286 286 286 286 286 286 287 287 287 287 287 287 287 287 287 287 287 287 287 287 287 287 286 286 286 285 284 283 283 283 282 282 282 282 282 282 282 282 282 282 282 282 282 282 281 281 281 280 280 280 280
313 314 313 314 314 316 319 316 316 321 323 326 324 319 319 318 315 317 318 314 306 301 300 298 297 296 295 295 295 295 294 293 292 291 289 288 289 289 289 289 288 287 287 286 286 286 286 286 286 286 286 286 287 287 287 287 287 287 287 287 287 287 287 287 287 287 287 286 286 286 286 285 284 283 282 282 282 281 281 281 281 281 282 282 282 282 282 281 282 281 281 281 280 280 280 280 279
314 315 315 316 315 316 318 316 316 318 320 324 324 319 320 318 310 310 314 311 304 301 300 298 297 297 296 295 296 295 294 293 292 291 289 288 289 289 290 290 289 289 289 288 287 286 286 286 286 286 286 287 287 287 287 287 287 286 287 287 287 287 287 286 286 286 286 286 285 285 285 284 283 282 281 281 281 281 281 281 281 281 281 281 280 280 280 280 280 280 280 280 279 279 279 279 279
Wind_Speed
8 8 8 7 7 6 4 4 2 2 4 3 2 1 2 3 1 1 3 3 1 2 3 2 2 2 0 2 3 5 4 4 4 3 1 5 4 2 11 9 3 7 19 22 23 26 24 24 22 20 20 19 18 17 16 15 14 13 13 12 11 9 8 7 7 7 7 8 10 9 8 8 8 8 8 8 7 7 6 7 7 7 7 5 5 4 4 6 6 5 4 4 3 4 4 4 4
8 8 8 6 6 4 1 3 3 3 5 3 2 1 3 3 1 3 4 3 3 2 3 2 1 2 2 2 2 3 2 5 5 2 3 6 6 4 10 11 5 6 18 22 23 27 25 24 24 22 21 20 19 18 17 16 15 13 13 12 11 9 8 8 7 7 7 8 9 10 9 8 8 7 7 7 7 6 6 7 7 7 6 5 4 5 5 5 4 3 2 2 1 1 1 1 0
9 8 9 6 3 4 1 3 3 1 5 3 3 4 2 1 4 6 7 7 6 4 4 1 1 1 3 4 2 3 1 4 4 2 4 6 4 3 8 11 6 7 16 20 22 26 26 25 24 23 22 21 20 19 18 17 16 15 14 12 11 10 8 8 7 7 7 7 8 9 9 8 7 7 6 5 5 5 5 7 7 6 5 4 4 5 6 5 3 3 3 2 2 2 2 3 3
9 7 9 4 1 4 3 4 2 4 3 2 1 3 2 3 5 6 7 7 6 3 3 0 0 2 3 2 1 2 3 4 3 4 2 4 2 2 7 12 7 9 16 19 20 25 26 25 25 24 22 21 20 20 19 18 17 16 15 13 12 10 9 9 8 8 8 7 7 9 9 8 7 6 5 4 4 4 4 4 6 5 4 4 4 5 4 5 4 3 4 4 4 5 5 5 5
7 5 7 2 2 2 3 3 2 4 3 4 2 3 4 6 4 5 7 6 5 1 1 1 1 2 2 0 2 2 3 2 2 5 3 4 3 3 6 12 9 9 14 18 19 23 25 25 25 24 24 22 21 21 20 19 18 17 15 14 13 11 10 9 9 9 8 8 7 8 9 8 6 6 4 3 2 3 3 3 4 4 4 3 4 4 4 3 3 3 4 7 8 8 7 7 7
6 3 6 6 3 1 3 3 2 1 4 5 3 3 5 5 3 4 7 6 3 1 1 1 1 1 1 2 2 3 3 0 3 3 3 4 3 2 7 11 9 8 12 17 18 21 24 25 25 24 24 23 22 21 21 20 19 18 16 15 14 12 11 10 9 10 10 9 8 7 7 7 6 6 4 4 2 2 2 2 3 3 3 3 4 5 3 2 3 5 7 9 10 10 7 6 7
7 3 4 5 2 2 3 3 3 1 2 4 2 3 5 5 4 2 6 3 1 2 2 0 1 1 1 3 2 3 2 2 3 3 5 5 3 3 7 10 9 8 11 16 17 19 22 24 26 25 25 24 22 21 22 21 19 18 17 15 14 13 12 11 10 11 11 10 9 8 7 7 6 6 6 6 3 2 2 2 3 3 4 4 4 3 2 3 5 6 8 9 10 10 8 6 6
8 3 1 3 2 4 4 3 2 2 0 2 3 5 5 4 5 0 3 1 0 2 2 2 1 1 1 3 2 4 2 3 6 6 8 5 4 3 7 9 8 8 10 15 16 18 20 23 25 25 25 24 23 22 22 21 20 19 17 16 14 14 13 12 12 13 12 11 11 10 9 8 7 7 7 7 5 3 3 2 2 3 4 4 3 3 1 2 4 4 6 10 10 10 10 9 7
7 4 0 3 2 3 3 1 2 2 3 4 4 6 5 2 4 2 1 2 1 1 4 4 0 1 3 3 3 5 3 4 6 5 5 4 5 4 7 8 7 6 9 13 15 16 18 22 25 25 25 24 24 23 22 21 20 20 18 16 15 15 13 13 14 14 13 12 12 11 11 9 8 8 7 8 6 5 4 3 3 3 3 3 3 3 2 2 4 4 7 10 10 12 13 12 8
5 4 1 3 3 3 3 1 1 2 4 4 4 7 5 1 3 1 1 2 1 1 5 2 1 2 2 2 3 3 5 6 3 2 2 3 4 4 6 7 6 6 8 11 13 14 16 20 24 25 25 24 24 24 22 21 20 20 19 17 16 16 14 13 14 14 14 13 13 12 12 11 9 8 8 8 8 6 5 4 4 4 3 2 3 3 3 4 5 7 9 11 11 12 14 12 7
2 4 2 4 4 3 1 2 3 3 6 4 4 6 5 3 3 1 1 2 2 0 3 1 1 1 1 3 3 3 7 6 1 0 1 3 4 5 6 7 6 6 7 9 11 12 14 17 21 25 25 25 24 24 23 21 21 21 20 18 17 16 15 15 14 14 14 14 13 12 12 11 9 9 9 9 8 7 6 5 5 5 3 2 2 3 4 5 7 9 11 11 11 13 13 9 4
2 3 4 5 3 2 3 2 5 5 6 4 3 3 2 3 2 0 1 1 3 4 3 1 0 2 2 4 3 4 7 4 2 1 2 4 4 5 6 7 7 6 7 8 10 11 13 15 19 23 25 25 24 24 24 23 21 21 21 20 17 16 16 16 15 15 14 14 13 13 13 12 10 9 9 9 9 8 7 7 6 5 4 2 2 4 6 7 7 9 11 11 11 12 11 7 3
2 1 5 3 2 3 3 2 4 4 5 3 1 2 0 1 0 3 2 1 1 3 2 4 2 2 1 3 3 5 6 4 1 1 3 5 5 7 7 9 8 7 7 9 11 11 12 14 16 20 24 26 25 25 24 24 22 21 22 21 19 16 16 17 16 16 15 15 15 14 14 13 11 10 10 10 10 9 9 8 7 6 4 3 4 5 6 7 7 10 12 11 12 12 10 6 4
2 3 4 3 1 2 3 0 2 2 2 3 2 3 3 1 3 4 4 3 3 2 2 2 3 2 1 3 5 5 4 6 1 2 3 5 6 8 8 10 10 9 9 9 11 12 12 13 14 17 21 25 26 26 25 24 23 22 22 22 20 18 17 17 17 17 16 16 16 15 15 14 13 12 11 11 10 9 9 9 7 6 5 4 5 6 6 8 10 11 12 13 13 13 9 6 4
3 2 5 4 2 1 3 0 1 4 1 3 2 1 3 1 3 3 4 2 3 4 2 2 2 1 2 1 5 5 6 10 5 4 4 5 7 8 9 10 10 10 10 10 10 12 13 13 14 15 18 23 26 26 26 25 24 23 23 23 22 20 18 17 17 18 17 17 17 16 16 15 14 13 11 11 10 10 10 9 7 6 5 5 6 7 7 9 11 12 13 14 14 13 9 6 5
3 4 5 3 1 1 2 1 2 3 1 4 2 1 2 3 3 2 3 3 1 3 3 2 2 1 2 3 6 6 10 13 9 7 5 6 6 8 8 7 8 9 9 10 10 12 14 14 15 15 17 20 23 26 26 26 25 24 23 22 22 20 19 18 17 17 17 17 16 16 16 16 15 14 12 11 11 11 10 10 8 7 6 6 7 8 8 9 10 12 13 13 14 12 8 7 6
3 4 5 3 1 1 2 3 3 2 3 6 5 4 4 5 2 1 1 4 1 3 3 4 3 1 4 4 7 11 14 13 9 7 5 5 5 5 5 5 7 8 10 11 12 12 14 16 16 16 17 18 21 24 26 26 26 25 23 23 22 21 20 19 17 17 17 17 16 16 16 17 16 15 13 11 12 12 11 12 10 8 8 7 8 8 9 9 9 11 12 12 14 12 9 8 8
5 4 3 2 1 2 4 6 5 2 3 5 5 5 3 5 5 3 1 3 4 3 3 5 5 4 5 6 11 14 14 12 9 8 8 8 9 10 10 9 9 9 10 11 12 13 15 17 17 18 18 18 20 22 24 25 26 25 24 23 22 22 21 20 19 18 17 17 17 16 17 17 16 16 14 12 13 13 13 13 12 10 8 9 9 9 9 10 10 11 12 13 14 13 10 10 9
4 3 3 2 5 4 5 6 5 3 2 4 5 3 1 4 3 3 3 5 6 5 6 3 4 8 7 10 15 15 14 14 12 11 13 13 14 14 14 14 13 13 12 12 12 13 15 18 19 19 19 19 20 21 23 24 25 25 24 24 23 22 22 21 20 19 18 18 17 17 17 17 17 16 15 13 13 14 15 14 13 11 10 10 9 8 10 10 11 11 12 13 14 13 11 10 10
2 4 2 5 6 4 5 6 6 5 2 3 5 2 1 4 2 1 2 6 7 4 6 3 3 8 8 10 16 17 16 19 19 18 18 17 17 16 16 16 16 16 15 15 14 13 14 17 20 20 20 20 20 21 22 23 24 24 24 24 24 23 23 22 21 20 20 19 18 18 18 17 17 16 15 14 14 15 15 16 15 12 11 11 9 8 10 11 11 12 13 14 14 13 11 10 11
2 3 3 5 3 2 5 6 7 5 2 2 2 4 5 4 1 1 2 5 8 3 4 2 1 6 6 7 12 17 19 20 22 22 20 19 19 18 18 17 16 15 13 13 14 14 14 15 18 21 21 20 20 21 22 23 23 23 23 23 23 23 23 22 21 20 21 21 19 19 19 18 17 17 15 14 15 16 16 18 16 13 13 12 10 9 9 10 11 13 15 15 15 15 12 10 11
1 2 5 5 4 2 5 6 5 3 2 1 2 4 5 1 1 3 4 2 6 1 2 2 2 1 4 6 8 14 16 17 19 20 20 19 19 20 21 20 18 16 15 14 12 11 13 14 16 18 21 21 20 21 21 22 23 23 23 22 22 22 23 22 21 20 21 22 21 20 19 19 17 17 16 15 16 16 16 17 17 16 14 12 10 10 11 11 12 13 15 15 16 15 14 12 12
0 3 2 3 4 4 4 3 4 3 3 3 3 3 2 2 4 3 5 6 5 2 3 6 7 6 8 10 10 11 12 12 15 17 17 19 19 20 22 22 21 20 19 18 15 11 10 12 14 16 19 21 21 19 20 21 22 22 22 22 21 22 21 20 20 20 19 20 21 21 22 21 19 19 17 16 16 16 18 18 18 17 14 13 12 13 15 13 13 14 14 15 15 15 15 13 13
2 2 4 3 4 5 5 1 1 3 2 6 3 4 4 4 5 2 3 4 1 6 8 10 10 12 13 13 11 10 10 12 14 15 16 17 17 17 20 22 22 22 21 21 18 13 10 9 12 15 16 18 20 19 19 20 20 20 20 20 20 20 20 18 18 20 21 21 19 19 21 20 17 18 18 17 16 18 21 20 18 18 16 15 13 15 17 14 13 15 15 15 16 16 15 14 14
2 4 4 2 2 6 6 5 4 3 5 5 2 6 8 5 3 2 3 1 5 6 9 9 10 14 14 12 10 9 11 14 16 17 18 19 18 19 22 23 23 24 24 24 22 18 12 8 8 12 14 14 16 18 18 18 19 18 18 18 18 18 19 18 17 16 18 21 20 19 21 21 18 16 16 17 17 17 20 19 18 17 18 16 15 16 16 14 15 17 17 16 16 17 16 16 15
4 5 3 3 5 6 6 6 5 2 4 2 2 9 7 3 1 1 4 2 5 7 9 7 9 12 11 9 9 9 10 14 17 17 18 20 23 24 25 25 25 25 24 24 23 20 16 10 5 5 9 9 11 15 16 16 16 16 16 16 16 16 17 18 17 16 16 18 20 19 21 23 19 15 16 17 18 16 17 18 15 15 17 17 16 16 16 17 18 18 18 17 17 17 17 17 16
3 2 3 5 7 7 4 5 5 2 3 5 5 10 6 4 1 1 4 3 3 8 10 8 10 11 9 8 8 10 12 14 17 18 20 23 25 26 25 26 25 24 24 25 25 22 18 14 9 4 1 3 4 9 12 13 14 14 14 14 14 15 15 16 15 16 16 15 15 16 15 17 16 16 16 16 17 18 19 20 19 18 20 19 17 17 19 19 18 19 19 17 17 17 17 17 17
1 1 5 7 7 7 4 5 6 2 3 5 7 6 4 3 1 3 4 5 5 10 9 8 11 8 7 8 7 10 12 14 18 19 20 21 21 22 23 24 24 23 24 25 24 21 18 16 14 11 7 5 3 2 6 8 9 10 10 10 11 11 12 12 10 10 11 10 10 11 12 15 16 16 14 15 18 20 21 22 22 20 18 18 19 19 20 19 19 20 19 18 18 17 17 18 18
1 3 4 8 9 7 6 4 3 0 1 3 6 2 4 2 2 3 2 4 8 11 9 8 9 7 7 7 6 8 11 15 18 19 18 18 19 20 22 22 22 22 23 23 23 22 20 18 16 14 12 10 8 4 1 2 4 4 5 6 7 8 10 9 8 8 8 9 9 9 10 11 11 11 13 16 18 18 19 18 19 17 15 18 20 19 20 20 20 20 19 18 18 18 18 19 19
1 3 2 6 7 7 6 2 3 2 0 2 3 2 6 5 1 2 1 5 8 10 7 7 7 6 7 6 6 7 11 15 17 18 19 20 20 21 21 22 22 22 22 24 25 25 23 20 18 16 15 14 12 10 7 6 4 3 3 3 3 5 8 7 7 8 9 9 10 11 12 12 10 10 12 14 15 15 14 13 14 15 17 18 20 20 20 20 20 19 19 19 18 18 18 19 19
1 2 2 3 2 5 6 2 2 2 1 2 3 2 6 6 3 4 2 3 8 8 6 7 6 6 6 6 7 6 10 14 16 19 21 21 21 21 22 22 23 23 23 26 26 26 25 23 22 20 19 17 16 14 12 10 8 7 6 5 3 2 1 1 2 2 3 3 5 7 9 12 13 13 14 15 16 15 14 12 12 15 16 17 18 19 19 20 20 19 19 19 19 18 18 19 19
2 1 3 3 2 5 8 3 1 1 2 5 4 2 7 6 3 7 6 4 9 9 6 7 7 7 7 6 7 6 8 13 17 21 22 21 21 21 22 22 24 24 24 25 26 27 28 27 26 24 23 22 21 19 17 17 15 15 15 15 14 12 12 14 15 13 11 10 7 7 6 3 5 7 10 12 13 14 14 14 14 15 15 16 17 18 18 18 19 19 19 19 19 18 18 18 19
3 0 4 3 3 3 6 3 1 0 0 5 3 2 5 3 2 7 8 6 9 10 7 7 7 6 6 5 6 5 6 10 15 21 22 21 21 21 21 22 23 24 25 25 26 27 28 29 29 28 28 27 27 26 25 25 25 25 25 25 24 23 24 25 24 22 20 20 18 17 16 12 11 10 7 7 6 8 9 11 13 14 14 14 15 15 15 16 18 19 20 19 18 18 18 17 17
3 1 3 4 3 3 3 3 3 4 3 2 2 1 6 7 1 8 9 6 10 10 6 6 5 5 5 5 5 5 6 7 10 16 20 20 20 20 21 22 23 25 26 26 27 27 28 29 29 30 31 30 30 30 30 30 29 29 29 28 27 28 29 28 26 25 25 26 24 24 22 19 17 15 13 12 9 8 8 8 10 10 11 11 11 11 12 14 15 16 17 17 17 17 17 17 17
4 3 3 3 3 4 4 4 2 5 5 2 1 2 8 11 4 9 9 7 10 8 5 5 4 4 4 4 5 5 5 6 8 14 17 18 19 20 21 23 24 25 26 26 27 27 27 28 28 29 30 30 30 30 31 31 30 29 29 28 28 29 28 27 27 27 27 26 25 26 25 24 22 21 19 17 15 14 13 12 11 11 11 10 9 8 9 10 11 12 13 13 14 14 15 16 17
6 5 4 4 4 5 5 5 4 1 3 4 4 5 8 9 5 7 6 7 9 6 5 4 4 4 4 4 4 4 5 6 9 14 17 18 19 19 21 23 25 26 27 27 27 28 28 28 28 28 28 27 27 27 27 27 27 27 28 28 29 31 29 28 29 29 28 27 25 25 25 25 24 23 23 22 21 20 19 19 17 15 14 12 11 9 8 9 10 10 10 11 11 11 13 15 17
5 4 4 4 5 5 4 3 5 1 1 5 5 5 8 6 3 5 3 5 7 5 5 4 4 4 3 4 4 5 5 5 10 15 17 18 19 20 22 23 25 28 28 28 29 29 30 30 30 30 28 26 25 24 24 25 25 26 28 30 31 31 29 28 29 29 28 27 25 24 24 23 22 22 23 22 21 21 20 20 19 17 16 14 14 13 12 11 11 11 10 10 10 10 12 13 14
3 4 3 3 4 6 5 3 5 1 2 5 2 3 8 4 2 4 3 5 5 3 3 3 3 3 3 4 5 5 4 5 10 14 17 18 19 21 22 23 27 28 27 27 28 29 29 30 31 31 29 28 27 27 26 26 27 27 28 30 31 31 30 29 30 30 29 27 26 25 24 23 21 21 22 21 21 21 21 20 19 19 18 17 16 15 14 13 12 12 12 12 11 10 11 11 13
2 2 2 4 3 3 6 3 4 2 2 4 3 3 7 1 4 4 4 5 3 3 3 3 3 3 4 4 4 4 4 5 7 10 14 17 18 20 21 23 27 27 26 25 26 28 30 30 30 29 29 29 29 28 28 29 28 28 29 30 30 31 32 31 30 29 28 28 27 26 26 25 23 23 22 21 21 21 21 21 21 20 20 19 17 16 16 15 15 14 14 13 12 11 10 10 12
3 3 2 4 2 0 4 3 4 2 1 1 2 3 6 1 4 4 4 4 4 4 4 4 3 3 3 3 3 4 4 5 5 6 9 13 16 19 20 22 26 28 26 25 25 27 30 31 30 29 28 28 27 27 27 28 28 28 29 30 30 31 31 29 29 29 28 29 29 29 28 27 25 25 24 23 22 22 21 21 21 21 21 21 19 19 19 19 18 17 15 14 13 12 11 10 11
3 5 6 4 3 5 6 3 4 3 3 1 3 3 6 3 1 1 2 2 3 3 4 5 4 3 3 3 3 4 4 4 4 4 6 10 14 17 18 19 25 28 26 24 24 26 30 32 31 30 29 27 26 25 24 23 24 25 25 26 26 28 30 30 31 32 32 32 33 32 31 29 28 27 27 26 25 24 23 22 21 21 21 21 21 21 21 21 20 19 18 16 14 13 11 10 9
4 5 9 9 7 7 5 3 4 4 4 3 2 2 5 4 2 3 2 1 3 3 4 4 4 4 3 4 4 4 4 4 4 4 6 9 12 15 18 19 24 28 26 24 24 25 30 32 32 31 31 29 28 27 25 23 24 25 25 27 28 30 33 33 32 32 34 34 34 34 33 32 32 31 31 30 28 27 26 25 24 23 22 22 22 21 21 21 21 21 20 18 17 15 12 11 11
2 4 8 9 7 5 3 2 2 0 3 2 2 2 4 5 4 3 3 2 3 2 3 3 2 3 3 3 3 3 4 4 4 5 7 9 11 14 17 18 22 25 24 25 25 27 31 33 34 33 33 32 31 30 28 28 30 31 33 34 35 35 34 31 30 32 33 33 33 33 33 33 33 33 33 33 32 31 30 29 28 26 26 25 23 23 23 22 21 21 20 19 19 18 16 15 14
3 4 5 6 6 6 5 5 4 3 3 3 3 2 2 4 4 2 3 3 1 0 0 1 1 1 1 2 3 3 3 3 3 4 6 9 10 12 14 16 18 21 23 26 27 29 31 33 34 34 34 33 32 31 31 31 33 35 36 37 37 35 33 31 31 32 31 31 31 32 32 33 32 32 32 32 32 32 31 31 30 29 28 28 27 26 26 24 22 21 20 19 19 19 19 18 16
4 3 6 6 6 6 5 6 3 1 1 4 4 0 2 5 4 2 1 2 3 4 5 4 4 3 2 1 1 1 2 2 3 3 5 8 9 10 12 14 17 20 23 26 28 29 30 31 33 33 33 33 32 31 31 32 33 34 35 36 36 34 32 31 30 30 30 30 31 31 31 31 31 31 31 30 31 30 30 30 29 29 29 28 27 27 26 26 25 25 24 22 21 19 18 17 16
3 5 7 5 5 5 4 5 4 2 1 5 6 3 2 4 4 1 1 4 6 6 6 5 5 5 4 3 2 2 0 2 3 3 4 6 7 8 11 14 16 20 23 25 27 28 29 29 30 32 32 32 31 30 30 31 31 32 33 33 33 32 30 30 29 30 29 29 30 30 29 29 29 29 29 29 29 29 28 28 28 28 28 27 26 26 26 26 25 25 24 23 22 21 20 19 17
6 6 6 6 6 5 3 2 4 3 2 6 6 4 3 3 5 3 4 4 5 7 5 5 5 5 6 5 4 4 2 1 1 3 4 5 7 9 11 14 17 19 22 24 26 26 27 28 29 31 31 30 30 29 29 30 30 30 31 31 31 30 29 28 29 30 29 28 29 28 28 27 27 27 27 27 27 27 27 27 27 26 26 26 26 26 25 25 24 24 23 22 22 21 21 20 19
5 4 4 4 3 4 4 4 3 1 5 5 3 2 4 4 5 4 5 4 4 7 7 9 10 8 7 6 5 4 4 3 1 1 2 5 7 9 11 14 16 18 21 23 25 25 26 26 27 30 30 29 28 28 28 29 29 29 29 29 30 29 28 28 29 29 28 28 28 27 27 26 26 26 26 26 27 26 26 25 25 25 25 26 25 25 24 24 23 23 23 23 22 21 21 20 20
4 4 5 4 2 3 2 3 1 3 5 3 1 2 3 5 6 5 6 5 4 4 5 9 12 11 9 7 6 5 4 4 4 3 3 4 6 8 10 13 15 17 20 22 23 24 25 25 26 28 29 27 27 27 27 28 28 28 28 28 28 27 27 27 27 27 26 26 26 26 27 27 27 26 26 26 26 25 25 25 25 24 24 24 24 23 23 23 22 22 22 22 21 21 21 21 20
4 5 5 4 2 1 2 3 2 4 4 2 1 1 1 4 4 4 5 4 4 4 4 6 10 11 10 8 6 5 4 4 4 4 4 5 6 7 10 12 14 17 19 21 22 23 24 24 25 27 27 26 25 26 26 27 28 27 27 27 26 26 26 27 26 26 25 25 25 25 26 26 26 26 26 25 25 24 24 24 24 23 23 23 23 22 22 22 22 22 22 22 21 21 20 20 20
3 4 5 4 4 4 4 4 3 4 2 2 2 1 3 4 2 3 4 3 3 4 5 6 7 7 7 6 5 5 5 5 4 4 5 6 8 9 10 12 14 16 18 20 21 22 23 23 24 26 26 24 24 25 25 26 27 26 26 26 26 26 26 26 26 25 24 24 24 24 24 24 24 24 24 24 24 24 24 24 24 24 24 24 24 24 24 23 23 23 23 23 23 22 22 21 20
2 2 4 3 4 4 1 3 5 3 2 3 2 3 4 4 1 3 2 2 3 2 2 6 7 6 6 5 6 6 6 5 5 4 5 8 10 10 11 12 14 16 18 19 20 21 21 22 23 24 24 23 23 23 24 24 25 24 25 25 25 24 24 25 24 24 24 24 24 24 24 24 24 24 25 25 26 26 27 27 27 27 26 26 26 26 26 26 26 26 26 26 25 25 25 24 23
2 2 3 4 3 6 3 2 1 3 1 4 2 3 4 1 1 3 2 2 2 2 3 6 8 7 7 7 7 7 7 6 6 5 6 9 11 11 12 13 14 16 17 18 19 19 20 21 21 22 22 21 21 21 22 22 22 22 23 23 22 22 22 23 23 23 23 22 23 23 23 23 23 24 25 26 27 27 28 29 30 30 29 29 28 28 28 28 28 28 28 28 28 28 28 27 26
5 3 5 3 2 4 3 1 3 3 3 4 1 4 4 1 2 2 2 2 3 3 4 6 6 7 8 9 8 8 7 6 6 6 8 11 12 13 13 13 14 16 17 18 18 18 18 18 19 20 20 20 20 19 19 19 19 20 20 20 20 20 20 21 21 21 20 20 21 22 22 22 22 22 23 24 25 26 27 28 29 30 30 30 30 30 30 30 30 29 29 29 29 28 29 29 29
5 4 3 3 3 2 2 2 2 1 3 4 2 3 4 5 4 2 4 7 8 7 6 7 9 10 10 11 10 8 7 6 6 6 7 10 13 14 14 14 15 16 17 17 18 17 18 17 17 18 18 18 18 17 17 17 16 17 17 17 17 17 17 18 18 19 20 21 22 22 22 22 22 22 23 24 25 26 26 27 28 28 29 29 30 30 31 31 31 31 31 31 30 29 29 29 29
3 1 1 2 2 3 2 2 3 2 2 3 4 3 3 5 6 7 10 11 10 10 9 10 12 13 12 11 9 8 7 7 7 6 7 10 15 16 17 17 16 17 17 17 17 17 17 17 17 17 17 16 16 15 15 14 14 14 13 13 13 14 15 16 17 18 20 21 22 23 23 22 23 23 24 25 26 27 27 28 28 28 29 29 30 30 30 31 31 31 32 32 32 31 31 31 31
2 2 3 2 1 2 1 1 3 3 3 2 3 5 5 4 3 8 9 8 9 12 12 11 12 12 12 10 9 9 8 8 8 7 8 12 16 18 18 17 16 17 16 16 16 16 16 16 16 16 15 15 14 13 12 12 11 10 10 10 10 11 12 13 14 16 18 19 21 22 23 23 23 24 25 26 27 27 28 28 29 29 30 30 31 31 31 32 32 32 32 32 32 32 33 33 33
4 4 5 6 4 3 2 4 1 2 2 4 3 6 7 3 2 4 4 4 7 10 11 10 11 13 12 11 10 9 9 10 9 7 9 13 17 19 19 18 17 17 17 16 15 15 15 16 15 14 14 13 13 12 11 10 9 7 7 7 7 8 9 10 11 13 16 18 20 22 23 23 24 25 25 26 27 27 27 28 28 29 29 30 30 31 31 31 31 32 33 32 32 32 33 34 33
Wind_Direction
342 341 333 328 330 324 341 53 75 335 71 74 328 51 248 224 250 291 287 298 339 256 233 295 140 125 68 144 186 192 173 168 168 120 174 242 305 293 188 184 165 169 180 182 177 181 185 181 182 183 185 188 190 192 191 191 189 190 187 185 181 175 176 176 170 163 162 158 156 153 150 151 148 147 148 145 147 147 144 135 128 130 121 117 123 115 113 113 100 96 95 91 87 82 87 90 88
346 343 340 325 332 358 311 72 90 343 52 74 294 163 265 303 343 235 231 230 208 268 300 288 139 69 44 93 126 139 207 221 193 170 266 279 308 269 193 184 176 165 180 183 179 181 187 184 184 186 187 189 193 194 194 193 192 195 193 191 189 185 183 182 178 172 172 168 163 161 159 159 157 155 153 153 154 148 150 143 135 141 138 137 140 116 99 96 84 64 56 63 41 20 30 31 49
345 342 347 331 342 40 67 40 90 55 70 97 287 243 285 16 230 238 226 222 228 287 314 260 148 97 63 32 46 119 283 262 223 217 279 282 297 279 198 186 167 161 180 185 183 183 188 187 185 186 189 192 194 196 196 196 198 200 198 196 195 191 186 188 188 183 183 177 169 166 166 166 164 160 156 160 165 158 154 149 146 148 143 146 148 127 99 78 62 20 338 332 329 310 298 297 289
344 345 347 341 70 41 64 42 126 112 102 166 315 263 248 188 226 255 244 248 256 307 340 81 121 217 103 10 296 130 296 277 227 196 270 297 275 293 199 188 175 164 180 188 188 186 190 190 188 187 191 194 195 198 199 200 202 203 202 200 198 192 188 190 190 190 189 184 175 171 172 172 169 163 161 166 173 172 164 159 156 152 149 154 149 139 110 84 72 30 328 305 316 324 305 288 287
348 351 354 31 113 45 95 73 111 94 157 182 73 285 253 211 231 276 266 285 273 228 100 90 355 285 98 205 169 138 262 261 271 218 255 321 282 271 196 194 191 171 181 191 192 191 193 192 191 189 192 195 195 199 200 202 203 204 205 205 203 195 192 191 188 191 190 188 181 173 173 173 169 163 165 165 165 169 168 171 167 162 161 156 137 120 101 84 75 32 332 306 316 327 310 287 281
358 2 21 57 103 109 110 88 102 70 213 172 90 288 275 228 223 283 288 303 285 147 138 101 54 327 356 264 201 200 224 34 321 242 256 312 286 247 196 202 199 183 185 193 197 197 196 195 195 193 194 197 197 201 204 204 204 206 209 209 207 202 197 194 191 192 189 188 185 178 177 176 173 171 177 177 176 170 163 183 173 163 155 137 116 105 94 39 3 353 332 318 328 334 322 301 286
14 358 22 58 56 42 97 112 159 200 216 170 131 263 282 250 220 309 320 322 16 29 59 153 169 99 289 305 308 240 233 267 276 262 281 286 263 231 197 204 204 195 189 195 202 202 201 198 198 197 197 198 197 202 207 208 207 208 212 210 208 207 202 197 195 193 191 189 187 187 189 188 182 185 193 189 197 188 163 199 186 157 138 126 118 110 87 3 348 339 324 320 337 346 341 332 306
25 13 21 79 34 28 88 106 214 209 312 227 229 241 262 250 203 192 325 310 248 338 1 287 279 96 298 1 327 266 298 286 285 282 277 264 236 218 198 205 211 206 195 198 204 206 205 202 203 202 201 200 198 203 209 211 210 209 213 212 208 209 204 201 199 194 192 191 189 192 196 197 193 201 207 198 201 197 182 193 181 160 143 139 155 158 140 335 332 317 305 309 324 340 340 334 316
32 30 124 74 79 33 52 43 281 237 271 267 269 255 263 247 171 117 281 289 293 280 308 282 244 0 312 359 290 280 348 329 309 291 265 236 222 204 200 211 221 219 201 199 204 209 208 206 206 206 205 203 201 204 211 213 213 211 213 214 213 213 206 205 204 197 195 194 194 198 201 199 198 210 219 211 204 201 201 185 166 168 164 172 194 200 228 271 292 266 275 297 309 321 327 323 312
34 28 122 69 84 47 27 315 290 252 268 268 273 261 260 211 150 112 232 287 308 196 305 289 118 340 324 294 283 309 348 341 339 314 256 218 216 201 206 218 228 225 210 204 205 210 211 210 209 209 209 207 205 206 211 215 215 214 215 217 219 219 211 210 210 200 198 199 199 202 204 202 204 214 223 222 212 206 207 187 172 178 181 202 226 240 273 281 291 282 278 293 304 311 317 315 301
27 2 90 78 72 74 120 233 288 281 284 294 292 266 239 187 133 111 224 301 329 4 302 29 84 276 8 304 268 305 329 342 50 39 255 209 218 210 213 224 231 223 216 214 210 211 212 213 213 213 212 211 211 210 213 215 216 216 218 219 223 225 217 217 215 205 203 205 205 206 207 207 209 220 226 226 215 206 207 198 189 193 198 221 263 280 287 287 296 294 288 292 300 309 315 309 284
58 347 62 83 110 153 165 206 286 290 306 333 345 304 204 160 106 241 266 320 352 351 280 192 142 169 22 315 266 312 346 22 135 142 202 213 229 220 223 229 232 228 219 219 218 217 216 217 217 216 215 215 214 214 216 217 218 218 219 220 223 226 221 221 217 209 208 208 209 209 211 211 215 226 230 230 220 212 212 211 211 215 215 232 292 314 309 307 302 286 286 296 301 309 315 304 273
105 117 77 85 145 150 145 183 282 310 336 344 278 297 231 143 235 221 198 3 356 7 299 214 178 99 338 281 299 325 2 37 143 161 207 224 232 224 231 231 231 233 226 223 223 223 221 222 222 221 219 217 217 217 219 220 220 219 220 222 224 226 222 222 217 211 212 212 212 212 215 215 217 227 233 234 224 216 214 216 226 236 243 260 293 315 312 303 290 271 281 297 301 309 312 299 275
129 150 102 106 71 129 154 28 318 66 352 292 262 289 329 237 214 188 145 18 295 203 313 235 154 94 270 297 327 303 335 4 0 262 257 242 241 232 233 232 234 235 235 233 228 227 226 227 226 226 224 221 220 219 222 223 223 222 223 224 226 227 225 224 218 213 215 217 217 215 216 218 221 228 234 236 225 219 218 222 234 241 254 272 291 311 307 279 270 271 279 289 298 306 306 293 276
128 131 90 111 32 28 172 9 79 106 121 278 272 267 341 270 154 139 164 93 284 220 287 290 146 297 260 291 288 263 333 356 353 308 286 255 248 237 238 238 240 240 244 246 239 235 232 232 231 230 229 226 224 222 223 225 226 225 225 226 228 228 227 229 222 216 218 221 222 220 218 220 225 230 235 240 233 227 225 227 236 240 257 276 290 312 314 283 273 276 279 286 296 303 299 289 277
114 109 68 88 60 47 172 169 116 96 211 250 271 140 27 294 153 142 221 143 270 287 347 261 204 283 192 195 261 295 337 341 338 323 294 266 254 243 249 252 252 249 253 259 254 246 239 239 237 236 233 230 228 226 226 226 227 229 228 229 230 230 229 231 229 223 224 224 224 223 220 222 229 235 239 242 237 234 232 231 233 240 258 281 297 313 316 300 287 283 283 288 296 300 295 287 276
66 77 66 56 99 161 182 180 164 120 264 274 322 42 54 309 276 227 200 97 245 299 349 269 249 231 208 237 310 335 342 338 333 326 315 303 299 288 285 280 270 258 256 262 262 255 246 243 241 240 239 235 233 230 229 228 228 230 232 233 233 234 232 233 234 231 230 228 228 226 224 225 230 237 239 238 237 237 236 234 234 243 258 280 299 311 314 308 299 291 291 292 297 301 294 286 277
53 81 82 27 181 177 179 184 193 164 292 280 327 21 47 306 308 326 351 40 353 320 301 271 286 292 271 312 342 347 351 356 352 349 356 358 351 343 331 317 305 284 268 266 265 262 255 248 245 243 242 239 237 234 232 231 231 231 232 235 235 237 235 234 236 236 235 232 230 229 228 229 231 238 241 236 235 238 239 237 237 243 259 279 295 311 313 307 302 298 297 295 300 305 294 282 275
80 117 68 270 205 206 196 181 194 196 264 262 298 350 110 254 278 359 322 310 345 337 300 316 328 313 323 346 355 358 9 21 24 26 25 20 12 2 348 334 323 310 294 283 272 267 262 256 251 247 245 242 240 238 235 234 233 232 232 235 237 239 238 237 238 239 238 237 234 234 234 235 235 238 244 243 237 236 239 240 239 245 261 274 283 304 309 303 302 299 298 298 303 310 298 274 266
129 115 66 248 214 238 233 193 207 219 242 276 299 348 305 253 236 356 323 301 319 302 284 355 355 312 326 352 8 18 32 38 38 39 37 30 26 20 7 353 340 331 315 296 280 269 268 264 258 252 249 245 242 240 238 235 234 235 234 234 236 238 240 241 242 241 240 240 238 236 237 239 242 243 243 248 248 241 241 242 238 243 258 267 271 284 298 295 294 294 297 302 306 313 304 271 258
133 126 174 223 180 251 241 199 220 231 207 234 296 351 311 279 195 193 70 333 315 298 252 233 272 300 327 357 17 28 37 36 34 35 33 27 24 20 14 8 359 352 340 316 292 274 268 266 262 257 252 248 244 241 238 237 235 235 236 237 238 237 238 240 243 243 242 244 245 245 242 239 245 250 246 246 250 247 244 237 232 243 252 252 257 266 280 283 284 290 298 305 306 310 306 276 256
138 215 196 188 145 246 245 191 217 204 138 250 300 323 297 289 91 177 135 275 278 306 223 178 84 20 43 34 26 30 33 31 28 28 25 20 18 14 11 10 9 8 6 355 331 299 275 262 258 255 254 250 246 243 241 239 238 235 236 237 238 239 239 238 239 240 238 238 241 249 249 245 247 254 253 247 246 247 247 242 238 242 243 243 257 270 273 273 279 287 295 301 302 304 304 285 263
191 276 273 215 174 223 252 179 199 148 102 271 256 294 300 356 314 204 173 228 246 17 83 97 73 78 78 55 41 32 28 27 25 24 21 17 14 11 10 10 11 11 12 10 359 337 300 268 252 246 248 250 247 244 242 240 239 238 237 236 237 240 243 242 241 245 249 244 238 239 240 240 246 252 256 253 246 247 253 252 247 243 239 250 271 279 271 269 277 284 288 293 296 297 298 290 272
114 268 306 277 191 220 258 312 169 144 203 251 258 322 297 278 291 262 210 235 355 46 72 84 75 67 62 52 42 33 28 25 22 23 24 21 16 14 14 15 16 15 16 15 11 1 334 289 257 242 238 247 249 245 241 240 241 240 239 239 238 239 243 244 242 244 248 248 244 239 233 232 241 248 254 259 255 253 249 238 238 248 247 250 270 274 262 264 281 286 286 287 291 291 293 290 280
135 230 274 289 228 246 276 305 285 239 238 250 305 291 269 243 226 296 295 62 64 65 68 65 69 58 50 48 37 30 29 24 17 16 20 20 18 22 23 21 22 22 20 18 17 16 4 331 277 248 235 239 247 247 242 239 241 240 240 241 241 241 241 243 247 250 249 248 247 249 249 243 240 243 253 264 259 254 253 236 227 241 244 246 265 265 258 273 288 288 285 284 287 288 289 289 285
216 213 272 305 297 294 307 301 285 268 244 197 240 273 279 279 173 312 312 66 85 72 58 42 59 55 45 45 35 31 30 24 16 12 14 17 21 22 22 23 25 25 22 23 24 25 24 16 349 265 240 232 241 245 243 241 242 242 241 242 244 248 248 248 253 256 260 259 248 247 257 249 240 250 260 262 255 251 262 258 245 249 252 254 262 264 268 281 286 286 285 284 286 287 288 287 286
203 203 296 286 297 304 305 287 295 335 268 190 213 272 301 329 17 120 308 359 79 68 51 35 55 54 44 42 34 34 33 26 18 16 16 15 18 16 14 19 23 26 27 31 32 33 36 40 42 38 257 222 233 241 243 244 244 245 247 248 250 253 257 259 257 254 258 266 255 249 261 262 263 271 265 260 260 259 259 256 254 258 259 258 262 270 274 275 279 285 283 284 286 286 286 284 283
127 12 316 297 316 305 271 278 288 310 276 188 189 264 320 346 14 190 277 351 59 74 54 37 51 46 37 37 33 35 33 28 24 26 21 12 11 9 12 17 19 26 32 35 38 41 46 50 53 55 60 68 79 224 242 246 250 254 259 264 267 269 275 278 278 271 268 277 273 260 263 268 270 268 258 257 260 258 256 250 244 247 254 260 266 272 272 272 278 279 278 281 283 283 283 282 281
60 45 337 307 343 324 289 304 298 117 259 172 158 281 311 265 182 219 292 45 67 69 55 38 45 36 32 32 30 36 29 28 28 28 20 13 13 13 17 21 22 29 36 41 46 50 53 56 60 61 62 65 67 71 66 263 270 283 289 291 292 288 289 298 307 301 291 288 287 284 278 274 273 268 260 257 255 257 265 264 256 256 266 268 268 269 269 271 271 271 276 281 281 281 283 284 282
316 44 39 313 350 325 297 6 3 1 217 171 145 288 285 258 229 333 346 98 74 60 49 38 37 28 29 25 28 33 26 27 27 24 20 19 20 20 23 27 32 35 40 49 52 56 59 63 68 69 71 72 72 71 68 65 54 37 15 337 312 281 266 271 275 271 275 273 270 275 276 272 276 274 264 258 257 260 266 271 273 275 275 273 273 272 269 268 268 271 276 279 280 282 285 286 284
324 10 39 352 349 283 293 336 2 0 33 58 113 208 270 277 342 356 332 122 93 75 53 38 36 26 25 21 26 25 23 26 24 23 23 23 24 27 29 32 38 42 47 52 55 59 64 69 73 76 79 80 80 80 80 80 77 74 70 61 47 5 323 357 12 301 295 292 273 277 271 261 262 260 257 258 259 261 259 261 273 276 275 278 281 278 275 273 271 271 274 276 277 280 285 288 288
30 326 306 338 187 265 309 321 135 168 350 27 91 195 280 284 344 357 1 83 101 87 59 41 37 27 26 20 23 21 16 21 23 23 23 26 28 31 34 36 42 46 51 55 59 64 68 72 76 79 82 83 84 86 87 89 87 85 84 80 78 74 69 64 61 60 55 48 38 29 19 327 303 283 269 268 265 264 263 261 267 271 272 277 281 281 281 278 275 272 272 273 274 279 285 289 290
355 153 250 268 201 272 324 328 5 68 18 16 50 195 286 272 94 10 13 65 90 84 66 47 39 28 31 23 22 24 15 17 18 17 18 25 32 35 38 42 47 51 54 59 63 67 69 72 76 80 83 86 89 90 92 92 91 89 87 84 82 79 74 70 67 67 65 61 59 56 52 45 34 23 6 345 317 294 286 280 281 280 278 278 279 281 278 274 272 270 269 268 269 275 281 287 293
306 18 232 248 210 226 306 298 347 31 85 28 9 189 260 263 54 25 11 48 78 80 70 55 48 35 34 28 28 27 21 24 14 8 14 25 34 40 45 48 53 57 60 63 67 69 71 73 77 82 85 90 92 93 94 93 93 91 87 84 82 78 73 69 67 66 65 63 61 59 57 55 49 43 37 30 23 10 354 336 324 315 307 299 291 283 273 268 265 263 265 265 264 270 277 285 293
207 186 205 247 233 227 261 261 298 12 23 7 328 249 264 276 351 28 8 37 75 81 78 73 60 47 40 32 34 28 27 33 16 10 19 30 37 43 50 54 58 61 64 67 70 73 75 76 80 84 86 90 92 94 95 94 93 90 87 84 80 75 72 69 66 64 63 62 61 59 59 59 57 56 53 50 48 43 38 34 24 13 1 350 336 312 294 286 279 273 270 268 270 274 278 283 287
183 176 162 187 220 244 241 242 261 326 5 302 243 237 264 280 348 25 7 38 73 79 72 70 53 47 40 33 34 30 36 30 15 20 29 37 41 47 54 58 62 66 67 69 73 75 75 77 80 82 83 88 92 92 92 91 90 87 84 81 78 74 73 71 67 64 62 61 60 58 56 55 54 55 55 53 51 50 48 46 41 35 28 23 20 11 355 342 331 320 306 297 295 291 289 290 291
140 137 142 187 219 260 253 251 282 211 157 269 221 214 255 266 353 6 359 49 64 64 67 64 52 49 35 38 36 29 36 26 23 30 35 40 45 51 56 61 67 70 68 70 73 74 74 77 78 78 79 84 86 85 85 85 85 84 82 80 78 75 74 73 69 66 63 61 59 56 54 51 49 48 49 47 46 45 43 41 40 40 40 40 42 41 32 22 14 5 354 341 331 321 315 311 310
119 143 183 244 224 251 261 243 298 327 177 260 219 231 261 246 44 353 13 66 50 40 79 75 60 60 40 41 36 26 22 20 28 29 32 38 44 50 54 57 65 66 63 67 72 75 78 80 79 79 80 82 82 82 84 83 83 85 85 82 80 76 72 70 69 66 64 62 59 56 54 51 49 48 47 46 46 45 44 44 44 45 46 45 45 45 41 37 33 28 24 14 3 351 339 333 330
169 135 181 264 236 268 286 284 338 11 175 264 323 301 275 262 73 27 36 72 57 34 69 67 61 64 45 42 36 30 26 23 25 20 25 34 41 49 52 55 63 65 62 64 70 77 82 83 82 83 84 85 86 87 88 88 88 89 88 86 83 79 74 71 70 67 64 62 60 57 55 53 52 51 50 48 47 47 47 46 45 43 42 41 42 44 44 42 38 35 32 25 17 9 2 357 353
195 156 178 247 233 320 282 294 338 11 124 267 18 330 287 282 80 56 46 81 89 59 64 59 57 70 58 62 52 38 37 27 21 13 19 33 43 50 52 55 65 68 63 61 66 74 81 83 85 86 87 88 88 89 91 92 93 92 91 89 86 83 78 75 72 67 64 62 60 57 55 54 53 53 52 51 50 50 49 48 46 43 41 40 39 39 40 39 38 36 34 32 26 16 11 9 3
239 202 202 223 216 213 231 287 331 352 14 46 83 348 302 277 211 108 72 90 83 48 58 52 33 39 47 63 53 37 40 24 15 7 7 30 44 52 56 59 68 70 65 61 62 71 79 84 86 87 87 88 89 90 93 97 99 98 97 93 87 81 73 68 66 63 63 63 61 60 58 57 56 55 54 53 52 52 51 50 49 47 45 42 39 39 39 37 35 33 31 31 30 25 17 11 6
278 232 209 214 218 222 237 342 8 10 346 345 50 325 294 310 293 189 165 73 48 25 45 44 14 17 29 42 34 18 27 17 11 10 10 32 45 54 59 61 69 73 71 69 69 73 81 86 87 88 88 88 90 91 94 98 97 95 93 87 81 76 68 63 63 64 65 65 65 64 63 61 60 59 57 56 55 53 51 50 49 48 47 43 40 39 38 35 33 32 29 26 27 25 18 15 13
271 246 204 207 205 197 195 138 87 106 262 315 41 186 254 314 312 213 168 95 58 32 42 34 359 15 25 27 21 10 13 7 5 14 22 35 43 52 58 60 70 77 79 79 79 79 83 87 87 88 87 87 88 89 90 90 89 88 87 84 81 79 76 71 70 71 70 70 69 67 64 62 61 59 58 57 56 54 53 51 49 49 47 44 40 37 35 33 29 27 25 24 23 21 18 19 15
231 237 153 158 171 179 180 154 153 215 252 325 6 134 229 287 285 243 155 127 76 353 9 333 277 341 16 9 12 14 8 358 359 7 21 35 43 52 60 66 74 82 86 87 86 84 85 87 88 88 87 87 87 87 87 87 88 89 88 87 83 81 80 77 75 74 72 71 69 66 63 61 59 58 57 55 54 53 52 51 49 49 48 46 43 41 38 34 30 26 22 20 18 17 18 17 13
240 195 125 132 150 157 144 130 150 258 14 310 303 124 229 264 275 313 130 197 246 223 215 216 210 214 202 196 350 13 4 359 3 6 21 37 48 60 71 79 83 88 90 90 91 90 90 90 91 90 89 88 88 87 87 87 88 89 88 87 84 81 80 78 76 73 70 68 65 63 60 59 57 55 54 52 51 50 49 48 47 46 46 45 43 42 40 37 35 32 29 25 21 19 18 15 10
198 132 98 80 83 89 91 111 123 68 62 246 245 193 206 270 284 287 160 250 243 208 208 211 201 209 204 202 208 185 91 19 11 24 41 50 65 77 86 92 92 93 95 95 96 96 95 94 93 92 90 90 89 89 88 88 88 87 86 86 84 81 79 76 74 69 66 64 62 59 56 55 53 52 50 49 47 46 45 44 43 42 42 41 39 38 36 35 34 33 32 31 28 26 22 18 13
140 110 69 50 37 42 43 60 93 83 263 243 232 196 181 261 278 230 191 230 204 168 182 202 198 207 207 209 206 187 173 133 14 34 62 77 92 99 101 99 98 99 100 101 100 100 98 97 95 93 93 93 92 91 91 89 88 86 85 84 82 80 76 73 69 65 61 59 58 56 53 52 50 48 46 45 44 42 40 39 38 37 36 35 33 32 30 29 28 27 27 27 27 27 24 21 18
111 95 82 74 359 13 26 359 47 146 251 256 248 179 158 210 258 236 210 226 194 168 179 185 187 197 200 203 199 186 183 175 164 96 99 107 110 112 109 106 105 106 105 104 103 103 101 100 98 97 95 95 95 93 92 90 87 85 84 82 80 76 72 69 66 62 58 55 53 50 48 46 45 43 41 39 38 36 35 34 33 31 30 29 28 26 24 23 21 19 18 18 18 18 18 17 16
86 97 102 101 342 357 353 308 269 222 248 260 246 154 175 226 245 224 196 200 211 210 200 183 182 188 191 194 191 181 182 179 176 179 163 138 130 126 119 116 115 113 110 109 109 108 106 105 103 101 99 98 98 96 94 91 88 85 83 80 78 75 72 68 65 61 57 53 50 46 43 40 38 36 34 33 32 30 30 29 28 27 25 24 22 20 18 16 15 13 11 11 9 9 8 7 7
150 144 132 130 122 108 259 265 270 264 258 264 269 164 217 263 260 216 192 201 221 229 230 204 188 185 184 184 179 175 184 189 186 187 181 166 157 148 136 129 125 120 117 116 115 114 112 110 108 106 105 104 102 99 96 93 89 85 82 79 76 73 70 66 63 59 55 51 48 44 41 37 35 32 30 28 25 24 25 23 22 21 19 17 14 12 10 8 7 5 4 3 2 1 0 359 356
179 161 132 144 157 174 222 220 210 249 273 299 301 199 191 211 238 234 226 247 260 244 229 205 188 180 168 160 162 177 192 198 195 187 187 185 175 162 150 141 133 128 126 123 122 120 117 115 112 111 110 108 105 101 97 93 89 84 79 75 71 68 65 62 59 54 50 47 44 41 37 33 30 28 25 22 19 17 17 16 14 13 11 10 7 5 3 1 359 357 356 355 354 352 351 351 348
208 130 111 169 187 157 177 199 176 182 292 293 243 224 219 192 220 290 285 297 322 328 180 169 170 163 151 159 178 191 200 198 193 188 191 194 185 174 163 152 143 137 133 131 129 127 124 121 118 116 113 111 107 102 98 93 89 83 77 72 67 64 60 57 53 49 44 41 38 35 32 28 24 21 17 15 12 11 10 9 8 7 6 4 2 0 358 355 353 352 350 349 347 346 344 343 341
163 127 173 218 184 119 114 252 59 81 258 267 198 238 288 330 272 306 13 350 340 32 124 160 167 162 165 185 196 199 203 195 192 194 193 193 190 184 173 160 151 146 141 138 136 132 130 127 124 120 117 114 109 103 99 93 87 81 74 68 63 58 54 50 47 43 38 35 32 29 26 22 19 15 12 8 6 5 4 3 2 2 2 1 360 359 356 354 352 350 348 346 344 342 339 337 336
126 176 212 203 130 97 105 232 347 42 243 272 224 226 257 209 244 315 29 282 256 210 179 169 170 174 186 199 202 203 201 192 197 200 195 196 195 190 180 168 158 151 146 142 139 136 134 131 127 123 120 116 112 106 100 91 83 77 70 65 59 54 50 46 41 37 31 28 25 22 19 16 13 9 6 3 1 359 358 357 355 355 354 354 354 353 353 352 351 349 347 345 343 341 337 334 333
127 190 195 116 149 175 101 166 227 234 244 283 298 257 242 198 202 206 204 224 218 197 188 184 186 191 197 203 204 203 194 188 201 201 195 198 198 193 184 173 163 155 149 146 143 141 138 135 130 126 121 117 113 108 100 90 81 75 69 64 59 53 48 42 37 31 25 21 18 14 11 8 5 2 359 357 355 353 351 350 349 348 347 346 346 346 346 345 345 345 343 342 341 340 336 332 331
81 113 112 79 163 178 156 155 170 179 220 275 301 304 265 224 199 178 194 210 194 179 186 197 199 199 200 200 197 196 193 194 201 198 194 196 198 196 187 177 167 158 153 150 148 146 144 140 135 130 124 120 115 108 101 93 84 77 70 64 58 50 43 35 29 23 19 16 12 7 4 1 358 355 354 353 351 350 348 347 346 344 343 342 341 341 341 340 338 338 337 336 336 335 332 329 328
135 144 177 199 152 137 195 204 123 135 174 212 271 283 268 253 199 180 198 210 186 180 188 195 201 202 202 202 198 194 193 199 201 194 191 194 197 197 190 181 172 163 159 156 154 152 148 144 141 135 131 127 121 115 108 99 91 81 70 60 49 41 35 26 20 16 12 9 6 2 359 356 353 351 350 350 349 348 347 346 345 344 343 342 341 340 339 338 336 335 334 333 332 331 329 327 325
169 187 197 191 171 135 188 243 190 121 176 184 202 265 269 253 200 191 209 214 193 189 187 189 198 200 199 202 200 193 194 202 202 190 187 192 195 196 191 185 180 175 171 168 164 160 155 152 149 144 139 134 129 124 116 105 95 82 65 50 35 27 21 13 9 7 5 3 1 358 355 352 350 349 348 347 346 346 345 345 344 344 343 342 342 340 339 338 337 334 332 331 330 329 327 325 323